Date,TemperatureHighF,TemperatureAvgF,TemperatureLowF,DewpointHighF,DewpointAvgF,DewpointLowF,HumidityHigh,HumidityAvg,HumidityLow,PressureMaxIn,PressureMinIn,WindSpeedMaxMPH,WindSpeedAvgMPH,GustSpeedMaxMPH,PrecipitationSumIn
2014-1-1,61.5,53.3,44.8,52.3,44.2,34.4,100,74,37,30.21,29.88,7,1,7,0.04
2014-1-2,60.4,56.7,36.7,54.6,44.4,15.3,84,68,20,30.21,29.80,23,4,23,0.24
2014-1-3,47.8,37.6,29.7,33.4,28.2,21.4,100,70,57,30.30,30.15,15,3,15,0.00
2014-1-4,59.7,43.7,30.2,55.2,39.8,24.8,100,88,57,30.15,29.91,13,3,13,0.00
2014-1-5,63.3,55.7,43.0,63.3,55.7,42.2,100,100,93,29.94,29.71,15,4,17,0.00
2014-1-6,43.0,35.0,25.2,43.0,29.6,17.4,100,81,63,30.47,29.94,22,7,22,0.00
2014-1-7,38.1,24.7,18.5,19.0,14.2,-22.4,99,67,40,30.53,30.36,11,1,11,0.00
2014-1-8,48.4,35.0,21.4,24.1,15.6,5.2,61,45,36,30.39,30.21,10,3,10,0.00
2014-1-9,62.6,40.0,30.4,51.1,22.6,12.9,100,51,30,30.24,30.09,11,2,11,0.00
2014-1-10,61.2,55.5,49.8,60.4,55.2,49.8,100,99,82,30.09,29.77,11,3,11,0.12
2014-1-11,75.4,61.6,42.6,71.1,48.0,24.0,100,67,30,29.97,29.68,20,4,20,0.39
2014-1-12,63.9,49.3,36.0,47.3,37.4,26.3,100,70,30,30.09,29.97,10,1,10,0.00
2014-1-13,59.9,57.0,47.5,59.9,57.0,47.5,100,100,100,29.97,29.71,13,3,13,0.75
2014-1-14,63.7,52.7,42.4,57.0,40.7,29.3,100,69,34,29.97,29.80,13,2,13,0.00
2014-1-15,56.7,45.5,33.3,45.5,32.9,14.8,100,66,32,30.06,29.91,15,4,23,0.00
2014-1-16,55.6,43.2,28.0,37.1,24.8,13.6,80,50,32,30.09,29.94,13,3,13,0.00
2014-1-17,62.4,50.7,34.5,47.8,33.6,14.4,100,57,30,30.12,29.94,17,4,17,0.00
2014-1-18,56.1,43.2,27.7,42.0,22.6,11.3,87,45,32,30.18,29.97,13,2,13,0.00
2014-1-19,65.1,49.0,39.7,52.9,36.3,26.9,100,65,30,30.09,29.94,15,1,15,0.00
2014-1-20,64.8,54.7,34.0,54.5,43.2,31.2,100,71,34,30.00,29.83,9,2,9,0.00
2014-1-21,62.1,52.8,34.3,57.7,35.0,13.5,100,56,32,30.09,29.80,20,5,20,0.00
2014-1-22,50.4,38.8,27.1,31.1,18.5,8.0,74,45,36,30.12,30.03,11,2,11,0.00
2014-1-23,52.7,38.4,33.4,32.4,26.5,15.2,89,65,34,30.27,30.06,10,2,10,0.00
2014-1-24,36.7,33.6,31.3,25.7,16.3,12.2,74,49,42,30.45,30.18,8,2,9,0.00
2014-1-25,57.0,43.9,33.1,39.9,29.6,21.3,100,62,32,30.21,29.88,12,3,12,0.00
2014-1-26,61.5,47.9,36.7,53.1,39.3,30.6,100,77,36,29.91,29.77,9,1,9,0.00
2014-1-27,67.8,59.0,47.1,64.2,48.1,21.6,100,72,36,29.94,29.74,15,3,15,0.08
2014-1-28,47.1,32.5,26.8,27.6,20.9,7.8,86,65,36,30.18,29.91,19,6,19,0.00
2014-1-29,36.1,29.3,23.2,15.2,10.1,5.3,49,45,42,30.30,30.15,15,4,15,0.00
2014-1-30,47.5,38.3,17.4,22.0,16.8,3.3,63,42,36,30.18,30.00,11,4,11,0.12
2014-1-31,61.0,42.4,27.7,49.5,32.0,16.6,100,72,36,30.06,29.94,11,2,11,0.12
2014-2-1,67.1,54.1,42.1,62.2,50.8,42.1,100,91,46,29.94,29.88,11,3,11,0.00
2014-2-2,61.5,60.2,58.1,61.5,60.2,58.1,100,100,100,29.91,29.80,11,4,11,0.00
2014-2-3,44.4,44.4,44.4,44.4,44.4,44.4,100,100,100,29.94,29.94,8,5,8,0.00
2014-2-4,64.0,55.9,44.2,64.0,54.7,44.2,100,96,72,29.94,29.71,11,3,13,0.00
2014-2-5,64.0,50.2,39.9,63.9,37.8,23.8,100,66,36,30.15,29.74,19,6,19,0.31
2014-2-6,40.8,36.3,31.1,31.8,22.9,14.5,93,61,40,30.24,30.12,17,4,17,0.31
2014-2-7,58.1,43.0,30.2,32.8,26.9,17.5,100,58,32,30.21,30.06,12,3,12,0.31
2014-2-10,54.7,52.8,50.4,54.7,52.8,50.4,100,100,100,29.94,29.91,9,3,9,0.00
2014-2-11,50.2,43.5,39.7,50.2,43.5,39.7,100,100,100,29.97,29.85,11,5,13,0.47
2014-2-12,48.0,43.8,38.8,48.0,43.6,36.0,100,99,78,29.85,29.68,20,4,24,1.06
2014-2-13,56.8,42.4,36.7,38.8,31.4,23.3,95,69,38,29.91,29.80,13,4,15,0.00
2014-2-14,62.2,48.8,33.8,58.5,38.8,32.7,100,74,36,29.88,29.74,13,3,13,0.08
2014-2-15,64.8,51.3,41.9,53.2,33.5,23.2,100,54,30,30.06,29.80,10,3,12,0.08
2014-2-16,68.2,54.4,36.3,56.3,46.1,32.5,100,78,32,30.06,29.97,10,2,10,0.08
2014-2-17,74.1,62.2,55.8,63.1,57.9,50.2,100,89,46,30.00,29.94,14,3,14,0.00
2014-2-18,75.9,67.8,61.3,67.3,60.5,50.3,100,81,44,30.03,29.91,11,3,11,0.00
2014-2-19,74.5,67.5,62.4,71.2,63.6,55.3,100,89,53,29.97,29.83,12,3,12,0.00
2014-2-20,78.3,66.8,64.4,70.5,64.8,57.3,100,95,49,29.85,29.74,17,5,17,0.04
2014-2-21,69.8,58.3,44.4,69.8,42.4,26.4,100,61,28,29.97,29.68,22,6,24,0.98
2014-2-22,69.6,52.2,41.5,56.8,39.9,24.5,100,69,28,30.03,29.85,11,2,11,0.04
2014-2-23,70.2,62.9,59.5,70.2,62.8,57.5,100,100,86,29.88,29.80,6,1,8,0.67
2014-2-24,72.3,63.0,57.0,63.5,57.3,40.8,100,86,36,29.97,29.85,12,2,13,0.67
2014-2-25,76.5,64.4,56.5,64.9,55.7,47.9,100,79,38,29.94,29.77,10,2,10,0.59
2014-2-26,64.4,50.8,41.7,64.4,41.6,19.0,100,74,38,29.91,29.71,17,5,17,2.36
2014-2-27,59.2,44.5,33.3,29.6,23.2,13.1,68,44,32,30.00,29.85,11,3,11,2.36
2014-2-28,63.7,55.3,32.4,41.9,30.9,25.4,100,42,30,29.97,29.88,13,5,13,0.00
2014-3-1,0.0,0.0,0.0,0.0,0.0,0.0,0,0,100,30.06,29.94,12,4,12,0.00
2014-3-2,0.0,0.0,0.0,0.0,0.0,0.0,0,0,100,30.03,29.83,12,3,12,0.00
2014-3-3,0.0,0.0,0.0,0.0,0.0,0.0,0,0,100,30.06,29.77,19,5,19,0.00
2014-3-4,0.0,0.0,0.0,0.0,0.0,0.0,0,0,100,30.09,29.94,11,4,11,0.28
2014-3-5,108.3,12.2,0.0,54.5,11.6,0.0,100,21,59,29.97,29.83,9,3,9,0.08
2014-3-6,60.5,51.1,48.2,56.6,49.9,38.4,100,96,48,29.85,29.74,8,2,9,0.28
2014-3-7,63.1,53.1,46.8,48.4,37.2,27.5,100,61,27,29.94,29.85,10,3,11,0.04
2014-3-8,71.8,57.4,45.0,54.8,43.1,31.2,100,66,24,30.06,29.91,10,2,10,0.00
2014-3-9,76.3,63.6,52.3,64.4,47.1,32.3,100,64,22,30.12,29.97,8,2,9,0.00
2014-3-10,80.2,63.9,49.8,55.2,45.3,34.0,98,59,22,30.03,29.83,11,2,11,0.00
2014-3-11,66.4,62.5,57.9,66.2,61.1,52.1,100,95,69,29.83,29.56,10,2,10,0.71
2014-3-12,69.8,61.9,50.2,63.1,45.7,18.8,100,63,26,30.00,29.56,17,5,17,0.00
2014-3-13,65.8,52.9,36.7,32.4,24.4,16.7,66,34,24,30.18,30.00,10,3,10,0.00
2014-3-14,71.2,56.1,38.5,55.1,35.8,28.7,100,52,26,30.15,29.97,12,3,12,0.00
2014-3-15,68.9,64.2,60.8,66.4,60.3,52.9,100,88,58,29.97,29.71,10,3,11,0.16
2014-3-16,81.0,68.8,63.9,73.1,61.2,39.9,100,82,27,29.71,29.44,21,4,21,1.02
2014-3-17,63.9,54.5,0.0,63.9,35.2,0.0,100,51,26,29.74,29.53,16,5,16,0.00
2014-3-18,64.6,22.5,0.0,38.2,10.7,0.0,56,12,27,29.88,29.71,13,3,13,0.00
2014-3-19,74.8,56.8,50.4,54.9,46.7,32.9,100,74,24,30.00,29.85,12,2,12,0.00
2014-3-20,77.2,63.5,53.8,57.0,42.0,28.2,100,54,22,30.03,29.91,13,2,13,0.00
2014-3-21,76.6,62.0,47.1,58.5,42.8,29.9,100,58,22,29.97,29.88,13,2,13,0.00
2014-3-22,80.4,66.7,56.8,68.6,53.5,40.5,100,71,26,29.94,29.85,13,2,13,0.00
2014-3-23,79.3,68.1,56.7,70.5,45.4,31.0,100,50,24,30.03,29.83,12,5,13,0.00
2014-3-24,71.4,56.5,52.7,44.1,32.0,25.0,70,40,22,30.03,29.83,11,3,11,0.00
2014-3-25,69.4,57.6,44.1,44.5,28.3,14.5,74,35,22,30.15,29.88,20,5,20,0.00
2014-3-26,61.7,51.4,42.3,25.1,19.3,13.5,32,28,24,30.27,30.06,13,3,13,0.00
2014-3-27,70.5,62.7,55.4,63.7,44.7,20.6,100,56,26,30.09,29.88,13,5,13,0.28
2014-3-28,66.6,63.6,61.7,66.6,63.5,56.8,100,100,82,29.88,29.74,16,4,16,4.80
2014-3-29,74.8,64.6,55.6,64.0,45.8,21.4,100,59,24,30.06,29.71,17,3,17,0.67
2014-3-30,74.5,59.8,45.9,39.8,32.4,20.6,78,39,22,30.12,30.00,13,3,13,0.63
2014-3-31,74.8,68.3,56.3,50.5,38.5,30.9,78,37,24,30.03,29.94,14,5,14,0.00
2014-4-1,79.5,65.8,52.9,65.3,50.9,41.2,100,65,26,30.00,29.91,15,4,15,0.00
2014-4-2,82.2,71.1,61.9,72.2,59.7,46.3,100,75,30,29.97,29.88,14,4,14,0.00
2014-4-3,83.3,70.4,67.8,72.2,65.1,46.3,100,88,30,29.91,29.80,15,6,15,0.00
2014-4-4,80.8,72.9,68.0,73.4,64.5,44.3,100,78,33,29.88,29.77,13,2,13,0.08
2014-4-5,69.1,63.5,58.8,69.1,44.3,28.6,100,56,26,29.91,29.83,12,3,12,0.12
2014-4-6,70.5,65.1,58.3,70.5,63.4,52.8,100,95,62,29.83,29.56,15,4,15,0.12
2014-4-7,76.6,71.3,70.0,71.8,68.3,44.9,100,93,33,29.59,29.53,17,4,17,0.28
2014-4-8,71.6,58.2,0.0,51.3,41.7,0.0,100,60,24,29.88,29.68,19,3,19,0.28
2014-4-9,77.7,60.3,47.3,50.9,38.7,25.3,100,55,22,30.09,29.88,13,4,13,0.00
2014-4-10,76.8,55.0,46.6,55.3,48.5,30.6,100,81,22,30.12,30.03,15,2,15,0.00
2014-4-11,81.3,70.1,59.4,66.7,52.0,37.2,100,60,21,30.09,29.97,15,5,15,0.00
2014-4-12,80.4,71.7,65.1,70.2,56.0,41.0,100,65,26,30.03,29.94,13,4,13,0.00
2014-4-13,71.6,69.2,67.1,70.0,66.9,61.4,100,93,76,29.94,29.85,16,5,16,0.00
2014-4-14,70.5,43.7,0.0,68.7,42.8,0.0,100,62,64,29.77,29.53,12,3,12,2.24
2014-4-15,65.8,56.2,47.8,65.8,47.0,22.9,100,76,27,29.97,29.65,22,6,22,0.51
2014-4-16,64.4,57.7,41.2,39.5,26.5,19.4,52,31,22,30.12,30.00,11,4,11,0.51
2014-4-17,67.5,62.9,0.0,63.4,47.4,0.0,99,57,44,30.09,29.97,17,4,17,0.00
2014-4-18,69.4,66.0,60.6,63.4,55.6,48.4,100,73,48,30.00,29.88,15,4,15,0.51
2014-4-19,78.6,25.7,0.0,54.1,17.4,0.0,92,21,22,30.00,29.91,13,4,13,0.00
2014-4-20,71.6,63.4,0.0,60.3,49.7,0.0,100,64,33,30.06,29.97,11,2,11,0.00
2014-4-21,79.9,65.8,55.6,63.2,49.9,34.0,100,62,22,30.03,29.88,11,2,11,0.00
2014-4-22,83.5,69.5,56.5,68.6,53.9,40.7,100,65,24,29.88,29.71,13,2,13,0.00
2014-4-23,87.3,72.7,60.3,67.6,53.6,38.2,100,63,20,29.83,29.77,11,2,11,0.00
2014-4-24,87.8,74.5,61.0,74.5,55.8,38.2,100,62,20,29.85,29.74,14,3,14,0.00
2014-4-25,86.0,75.1,70.9,73.4,65.0,46.5,100,79,27,29.85,29.77,13,3,13,0.00
2014-4-29,0.0,0.0,0.0,0.0,0.0,0.0,0,0,100,29.62,29.56,24,5,24,27.02
2014-4-30,0.0,0.0,0.0,0.0,0.0,0.0,0,0,100,29.91,29.59,13,3,13,0.07
2014-5-1,0.0,0.0,0.0,0.0,0.0,0.0,0,0,100,29.97,29.85,15,3,15,0.07
2014-5-2,0.0,0.0,0.0,0.0,0.0,0.0,0,0,100,29.88,29.80,10,1,10,0.00
2014-5-3,0.0,0.0,0.0,0.0,0.0,0.0,0,0,100,29.97,29.88,15,2,15,0.00
2014-5-4,0.0,0.0,0.0,0.0,0.0,0.0,0,0,100,30.00,29.91,15,3,15,0.00
2014-5-5,0.0,0.0,0.0,0.0,0.0,0.0,0,0,100,29.94,29.85,10,1,10,0.00
2014-5-6,0.0,0.0,0.0,0.0,0.0,0.0,0,0,100,29.91,29.83,13,3,13,0.00
2014-5-7,0.0,0.0,0.0,0.0,0.0,0.0,0,0,100,29.94,29.83,14,6,15,0.00
2014-5-8,0.0,0.0,0.0,0.0,0.0,0.0,0,0,100,29.97,29.91,15,6,15,0.00
2014-5-9,0.0,0.0,0.0,0.0,0.0,0.0,0,0,100,29.94,29.83,14,4,14,3.63
2014-5-10,0.0,0.0,0.0,0.0,0.0,0.0,0,0,100,29.88,29.83,13,3,13,0.92
2014-5-11,0.0,0.0,0.0,0.0,0.0,0.0,0,0,100,29.94,29.85,16,5,16,0.05
2014-5-12,87.3,48.1,0.0,76.3,38.6,0.0,77,32,44,29.97,29.85,16,6,16,0.00
2014-5-13,90.3,46.7,-11.2,70.9,45.4,0.0,100,51,55,29.94,29.85,13,5,13,0.00
2014-5-14,-11.2,-11.2,-11.2,0.0,0.0,0.0,0,0,100,29.94,29.74,17,3,17,2.35
2014-5-15,-11.2,-11.2,-11.2,0.0,0.0,0.0,0,0,100,30.06,29.91,14,4,16,0.00
2014-5-16,-11.2,-11.2,-11.2,0.0,0.0,0.0,0,0,100,30.06,29.94,15,2,15,0.00
2014-5-17,-11.2,-11.2,-11.2,0.0,0.0,0.0,0,0,100,30.03,29.97,13,2,13,0.00
2014-5-18,-11.2,-11.2,-11.2,0.0,0.0,0.0,0,0,100,30.06,29.97,10,1,10,0.00
2014-5-19,-11.2,-11.2,-11.2,0.0,0.0,0.0,0,0,100,30.06,30.00,13,4,13,0.00
2014-5-20,-11.2,-11.2,-11.2,0.0,0.0,0.0,0,0,100,30.09,30.00,13,4,13,0.00
2014-5-21,-11.2,-11.2,-11.2,0.0,0.0,0.0,0,0,100,30.09,29.97,9,2,9,0.00
2014-5-22,-11.2,-11.2,-11.2,0.0,0.0,0.0,0,0,100,30.06,29.94,10,2,10,0.00
2014-5-23,91.9,40.9,-11.2,69.1,37.6,0.0,76,34,47,30.03,29.88,10,3,10,0.00
2014-5-24,91.9,78.7,70.5,73.9,68.8,65.1,85,73,52,30.00,29.88,8,1,8,0.00
2014-5-25,87.8,78.5,68.2,73.2,67.5,62.5,87,70,50,29.97,29.88,11,2,11,0.00
2014-5-26,86.9,81.9,70.2,73.6,70.5,65.4,87,69,55,30.00,29.94,11,3,11,0.00
2014-5-27,86.9,80.9,77.2,75.1,71.8,68.4,79,74,66,29.97,29.85,14,4,15,0.05
2014-5-28,80.1,77.0,72.0,75.8,71.4,68.4,91,83,77,29.85,29.74,13,4,14,1.74
2014-5-29,82.2,73.3,71.6,73.5,69.8,67.9,91,89,73,29.83,29.74,34,5,34,1.84
2014-5-30,83.7,78.9,75.2,76.7,72.1,69.9,87,80,71,29.83,29.74,17,6,17,0.60
2014-5-31,80.2,76.7,74.3,73.5,71.2,69.0,86,83,78,29.85,29.80,17,4,17,0.60
2014-6-1,84.2,75.3,72.5,77.8,71.2,69.6,92,87,76,29.91,29.83,11,1,12,1.86
2014-6-2,84.4,79.5,75.0,75.1,73.1,71.0,91,81,71,29.94,29.88,17,5,17,0.92
2014-6-3,80.1,77.1,73.9,74.2,73.1,71.2,93,88,80,29.94,29.85,10,3,10,1.28
2014-6-4,86.2,79.3,72.0,74.8,71.7,68.6,91,78,65,29.85,29.77,13,3,13,0.00
2014-6-5,87.4,80.6,74.8,76.5,73.4,70.7,89,79,66,29.83,29.74,12,3,12,0.00
2014-6-6,89.8,83.1,74.5,78.9,75.0,70.4,90,77,64,29.85,29.77,13,2,13,0.00
2014-6-7,90.9,84.5,77.4,80.4,76.6,73.4,89,78,62,29.85,29.77,14,3,14,0.00
2014-6-8,91.6,83.4,77.4,79.0,75.7,73.2,88,78,60,29.85,29.74,13,2,13,0.00
2014-6-9,90.7,84.2,78.1,78.7,75.5,73.2,85,75,64,29.80,29.74,15,4,15,0.00
2014-6-10,88.7,79.3,73.6,77.7,72.7,67.0,90,81,63,29.83,29.71,17,4,17,2.61
2014-6-11,87.3,80.8,74.1,73.6,69.4,66.9,91,69,55,29.74,29.68,13,2,13,0.00
2014-6-12,88.9,83.1,70.9,75.7,70.6,66.2,88,67,50,29.83,29.74,13,2,13,0.00
2014-6-13,79.0,75.7,72.0,74.3,70.8,67.4,90,85,73,29.88,29.77,14,1,14,1.20
2014-6-14,88.0,79.5,70.7,77.3,72.3,67.0,92,79,67,29.88,29.83,13,2,13,1.20
2014-6-15,88.0,77.8,72.7,75.8,71.5,68.1,90,81,65,29.97,29.83,10,2,13,1.20
2014-6-16,89.8,83.5,77.2,77.3,74.4,71.4,87,75,62,30.03,29.94,13,3,13,0.00
2014-6-17,91.2,84.2,77.5,76.8,73.8,71.2,87,72,56,30.03,29.91,10,2,10,0.00
2014-6-18,91.0,82.2,73.8,76.1,72.5,68.8,88,73,57,30.00,29.91,10,1,10,0.00
2014-6-19,91.6,84.2,75.9,77.1,73.3,70.3,88,71,59,30.00,29.91,10,2,10,0.00
2014-6-20,91.6,81.2,73.9,78.3,72.7,69.3,88,76,59,29.97,29.88,13,1,13,0.00
2014-6-21,91.6,82.4,73.0,78.0,73.4,68.9,88,75,61,29.91,29.77,13,2,13,0.00
2014-6-22,87.6,81.1,75.2,77.7,74.2,71.1,88,80,69,29.85,29.74,8,2,10,0.61
2014-6-23,87.3,77.9,74.7,78.7,73.9,71.2,92,88,67,29.91,29.77,9,1,10,0.10
2014-6-24,89.8,81.7,75.2,78.5,73.6,68.8,94,77,61,29.94,29.88,14,2,14,0.15
2014-6-25,87.8,77.3,73.9,76.3,71.8,69.3,90,83,65,30.03,29.91,17,1,17,0.20
2014-6-26,88.0,78.4,73.0,79.5,73.5,69.6,94,85,70,30.00,29.85,15,1,15,1.13
2014-6-27,88.5,78.5,73.2,79.6,74.0,69.7,94,87,70,29.97,29.88,25,2,25,0.07
2014-6-28,90.1,81.7,73.2,80.7,75.0,69.1,92,80,68,30.00,29.91,14,3,14,0.07
2014-6-29,92.1,85.9,80.1,80.8,77.7,75.2,87,77,67,30.03,29.94,11,3,11,0.07
2014-6-30,91.8,85.0,77.2,81.1,76.4,70.7,89,76,51,29.97,29.85,11,2,11,0.07
2014-7-1,97.5,82.9,77.2,78.1,75.3,72.7,88,79,48,29.91,29.80,9,1,10,0.00
2014-7-2,96.3,85.1,77.4,80.6,75.8,68.1,86,75,55,29.91,29.80,13,2,13,0.00
2014-7-3,95.7,83.6,75.2,74.5,71.3,68.7,83,68,45,29.94,29.83,8,2,8,0.00
2014-7-4,94.1,81.6,72.5,72.0,67.7,63.2,85,65,40,30.03,29.94,6,2,8,0.00
2014-7-5,90.9,73.1,66.4,69.4,63.6,60.7,84,74,45,30.03,29.94,10,1,10,0.00
2014-7-6,91.0,79.6,68.2,69.8,65.9,63.2,86,65,43,29.97,29.85,11,2,11,0.00
2014-7-7,92.7,80.4,69.1,72.6,68.7,62.9,89,70,38,29.94,29.85,12,2,12,0.00
2014-7-8,89.8,81.7,74.1,75.2,71.3,67.5,85,71,58,29.97,29.88,17,2,17,0.00
2014-7-9,93.4,77.8,73.8,77.4,72.8,70.7,97,85,55,29.97,29.88,21,1,21,0.67
2014-7-10,92.3,79.9,71.2,88.7,74.8,70.1,97,86,58,29.97,29.88,8,1,9,0.15
2014-7-11,93.7,79.2,73.4,77.9,73.2,70.1,91,83,57,30.03,29.94,10,1,10,1.89
2014-7-12,90.1,76.7,72.5,79.0,72.8,70.4,94,88,60,30.00,29.91,10,1,10,0.41
2014-7-13,90.3,81.0,74.1,76.6,73.6,71.0,91,79,60,30.00,29.88,11,1,11,0.72
2014-7-14,91.4,84.9,75.6,77.4,74.9,71.8,90,73,62,29.94,29.83,15,3,15,0.00
2014-7-15,89.8,84.0,79.0,77.4,76.2,74.5,88,78,63,29.83,29.80,13,4,13,0.00
2014-7-16,91.9,81.9,71.6,74.3,68.7,62.9,92,66,45,29.85,29.77,11,2,11,0.00
2014-7-17,87.4,71.9,65.8,69.3,63.7,60.9,85,76,48,29.88,29.83,9,0,9,0.00
2014-7-18,81.9,76.3,73.4,78.0,72.3,67.4,96,88,80,29.88,29.80,22,0,22,0.72
2014-7-19,88.9,83.3,76.5,87.1,81.9,75.2,96,95,95,29.91,29.83,15,3,15,0.10
2014-7-20,87.1,81.7,75.7,85.5,78.8,72.6,96,91,84,29.88,29.83,13,3,18,0.13
2014-7-21,94.6,82.9,75.2,78.3,73.0,70.0,94,75,47,29.91,29.83,8,1,9,0.13
2014-7-22,91.8,80.6,73.4,75.7,71.3,66.9,90,74,55,29.91,29.85,11,2,11,0.00
2014-7-23,87.8,79.8,70.7,74.6,71.1,67.2,90,75,60,29.94,29.83,11,2,11,0.00
2014-7-24,89.8,82.6,72.7,75.3,73.5,69.9,92,75,59,29.88,29.80,10,2,10,0.00
2014-7-25,92.3,82.6,74.7,78.2,74.4,71.2,94,77,55,29.91,29.83,15,2,15,0.00
2014-7-26,93.7,80.6,76.3,77.6,74.4,72.4,91,82,51,29.94,29.85,15,1,15,0.00
2014-7-27,95.7,85.8,77.7,77.5,75.5,72.6,90,73,50,29.97,29.85,13,2,13,0.00
2014-7-28,98.2,87.5,79.7,78.6,76.4,74.0,86,71,50,29.94,29.80,14,3,14,0.00
2014-7-29,95.2,82.1,75.4,74.7,69.8,65.8,79,68,41,29.94,29.83,12,1,12,0.00
2014-7-30,91.6,79.5,68.2,68.1,63.7,61.1,79,60,42,29.94,29.85,13,2,13,0.00
2014-7-31,91.9,82.7,67.1,68.2,65.0,61.4,83,57,39,29.91,29.85,9,2,9,0.00
2014-8-1,88.9,80.7,73.4,71.4,69.5,67.5,84,69,54,29.88,29.83,5,0,5,0.00
2014-8-2,92.1,80.1,70.9,73.4,69.9,66.8,89,73,45,29.88,29.80,10,2,10,0.00
2014-8-3,91.2,79.9,74.3,77.6,72.7,69.7,88,80,63,29.88,29.80,11,2,11,0.61
2014-8-4,92.8,81.8,73.2,77.7,74.4,69.8,94,79,60,29.91,29.80,13,2,13,1.89
2014-8-5,91.8,80.6,71.1,80.2,74.3,69.7,96,82,60,29.94,29.85,11,2,11,0.00
2014-8-6,93.2,83.2,75.6,78.6,74.7,70.1,90,77,59,29.91,29.83,14,2,14,0.00
2014-8-7,94.5,83.6,74.7,78.6,74.8,71.2,91,76,53,29.88,29.77,11,2,11,0.00
2014-8-8,93.9,86.1,78.4,78.9,76.7,74.4,92,74,59,29.88,29.80,13,2,13,0.00
2014-8-9,93.4,82.5,75.9,78.8,75.0,70.9,90,79,58,29.91,29.83,17,1,17,0.33
2014-8-10,91.4,80.5,72.9,79.6,73.6,69.4,92,80,62,29.94,29.83,13,1,13,0.33
2014-8-11,97.9,81.1,74.3,78.5,73.7,70.5,90,79,49,29.91,29.80,12,1,12,0.00
2014-8-12,92.3,78.5,74.1,78.3,72.9,70.5,90,84,59,29.83,29.74,12,1,12,0.10
2014-8-13,93.6,82.8,74.5,76.8,73.1,68.7,88,74,53,29.85,29.80,11,1,11,0.00
2014-8-14,93.2,84.4,72.0,69.4,67.4,63.6,78,58,42,29.91,29.83,9,2,9,0.00
2014-8-15,96.1,75.1,68.2,72.1,65.5,62.8,85,74,41,29.91,29.80,12,1,12,0.00
2014-8-16,86.7,76.2,71.1,76.7,69.5,65.6,87,80,68,29.91,29.85,11,1,11,0.00
2014-8-17,89.8,82.2,78.3,79.2,76.1,71.3,89,82,64,29.94,29.85,14,2,14,0.13
2014-8-18,95.5,83.5,76.3,79.4,76.4,73.1,92,81,51,29.91,29.80,15,3,15,0.13
2014-8-19,95.5,85.9,78.3,78.6,75.2,70.5,89,72,47,29.88,29.80,11,2,11,0.00
2014-8-20,96.6,82.5,77.0,77.9,74.8,72.8,88,79,53,29.97,29.83,11,1,11,0.00
2014-8-21,97.7,86.0,77.0,77.7,74.7,72.5,88,71,49,30.00,29.91,10,2,10,0.00
2014-8-22,99.9,86.4,76.3,79.7,75.1,72.1,88,71,50,29.97,29.85,10,2,10,0.00
2014-8-23,101.8,87.1,78.3,80.4,75.9,71.8,87,71,49,29.88,29.77,9,2,9,0.00
2014-8-24,100.9,88.4,77.2,77.2,74.2,71.8,85,65,41,29.80,29.68,10,2,10,0.00
2014-8-25,87.3,82.1,78.6,76.6,73.7,71.7,86,76,69,29.83,29.74,10,2,10,0.05
2014-8-26,92.3,77.0,72.7,73.9,70.7,67.6,86,81,54,29.88,29.77,11,1,11,0.05
2014-8-27,96.1,88.7,75.0,77.5,74.2,70.2,86,64,51,29.91,29.83,13,4,13,0.00
2014-8-28,96.6,81.4,76.8,78.1,72.6,70.6,85,76,53,29.88,29.80,13,1,13,0.00
2014-8-29,92.3,80.9,75.4,79.0,73.6,69.9,87,79,64,29.91,29.80,22,2,22,0.26
2014-8-30,81.7,80.7,80.1,76.6,75.9,74.1,87,85,82,29.91,29.85,10,4,10,0.00
2014-9-5,86.4,81.0,77.5,75.4,73.5,71.6,82,78,70,29.91,29.88,3,0,3,0.00
2014-9-6,94.6,78.6,73.6,76.6,71.5,69.1,87,80,52,29.94,29.80,11,1,11,0.00
2014-9-7,98.2,82.6,75.4,79.9,73.2,70.9,87,74,52,29.85,29.77,10,1,10,0.00
2014-9-8,92.5,81.3,74.3,79.3,73.3,70.2,89,77,59,29.88,29.80,10,1,10,1.54
2014-9-9,96.8,84.8,73.9,78.9,74.2,70.2,90,72,53,29.88,29.80,10,2,10,0.00
2014-9-10,95.2,85.8,78.4,79.4,75.5,73.1,88,72,57,29.85,29.77,13,2,13,0.56
2014-9-11,96.6,83.4,78.4,79.4,75.4,73.7,87,77,54,29.88,29.80,11,1,11,0.00
2014-9-12,96.4,89.1,79.9,80.1,76.9,74.2,86,68,57,29.88,29.80,13,3,13,0.10
2014-9-13,91.4,81.5,75.7,75.9,72.9,68.8,87,76,59,29.97,29.83,12,3,12,0.00
2014-9-14,94.6,81.9,70.7,76.6,71.3,65.6,84,71,55,29.97,29.91,10,3,10,0.00
2014-9-15,92.8,87.0,79.5,79.2,76.1,73.7,83,71,61,29.97,29.88,12,2,12,0.00
2014-9-16,93.2,81.1,74.8,80.1,73.6,70.4,90,79,60,29.94,29.83,9,1,9,0.33
2014-9-17,91.9,78.9,72.9,77.5,72.1,69.4,89,81,58,29.85,29.74,0,0,0,0.00
2014-9-18,92.7,85.6,73.4,77.1,74.7,69.6,89,71,59,29.80,29.71,0,0,0,0.00
2014-9-19,89.6,81.9,74.1,74.8,72.4,67.6,89,74,49,29.85,29.77,0,0,0,0.00
2014-9-20,90.5,84.3,71.6,72.5,69.9,66.9,85,63,52,29.88,29.80,0,0,0,0.00
2014-9-21,92.5,77.4,68.7,72.7,67.5,63.3,85,73,51,29.91,29.83,0,0,0,0.00
2014-9-22,92.7,85.0,66.7,75.8,70.4,57.4,79,62,49,29.91,29.83,0,0,0,0.15
2014-9-23,86.9,69.4,60.4,63.8,56.7,53.2,77,66,38,29.97,29.88,0,0,0,0.00
2014-9-24,88.2,75.5,66.7,69.0,63.5,58.8,80,67,48,30.03,29.91,0,0,0,0.00
2014-9-25,86.0,69.2,64.6,68.3,61.8,59.0,86,78,53,30.06,29.94,0,0,0,0.00
2014-9-26,85.1,75.0,67.6,68.7,64.5,61.8,84,71,54,29.97,29.88,0,0,0,0.00
2014-9-27,84.0,70.0,65.1,71.1,63.2,59.5,85,79,64,29.88,29.83,0,0,0,0.00
2014-9-28,85.3,77.0,73.6,74.3,70.9,67.4,90,82,68,29.85,29.77,0,0,0,0.26
2014-9-29,88.0,76.6,73.6,74.6,71.8,69.9,90,86,62,29.80,29.71,0,0,0,0.00
2014-9-30,89.2,76.3,71.2,74.9,69.8,67.2,90,81,62,29.77,29.71,0,0,0,0.00
2014-10-1,86.9,77.7,72.3,75.4,70.7,67.7,87,79,66,29.83,29.74,0,0,0,0.00
2014-10-2,92.3,84.6,78.4,79.9,76.8,73.4,88,78,64,29.88,29.77,0,0,0,0.00
2014-10-3,83.8,76.8,69.1,77.2,69.7,62.3,89,79,64,29.91,29.77,0,0,0,1.43
2014-10-4,75.0,66.4,54.3,62.3,53.4,41.3,83,66,33,29.97,29.88,0,0,0,0.00
2014-10-5,79.9,66.3,52.9,59.0,51.1,44.8,74,60,40,29.94,29.85,0,0,0,0.00
2014-10-6,86.7,75.8,68.4,68.6,63.5,58.7,76,66,53,29.91,29.80,0,0,0,0.00
2014-10-7,89.2,83.4,72.3,73.9,71.0,67.9,86,67,54,29.91,29.85,0,0,0,0.00
2014-10-8,89.1,76.6,68.2,75.5,70.0,63.8,89,81,63,30.00,29.91,0,0,0,0.05
2014-10-9,88.9,78.7,68.7,75.5,70.9,63.5,88,77,64,29.97,29.85,0,0,0,0.00
2014-10-10,90.9,83.7,74.7,76.2,73.2,70.5,88,72,57,29.91,29.85,0,0,0,0.00
2014-10-11,90.5,82.1,74.5,75.7,72.6,69.9,86,74,60,29.91,29.83,0,0,0,0.00
2014-10-12,91.0,82.7,74.1,75.2,72.1,69.3,86,71,57,29.88,29.80,0,0,0,0.00
2014-10-13,90.9,82.0,75.2,78.3,74.0,69.6,86,77,65,29.85,29.62,0,0,0,1.64
2014-10-14,78.3,69.1,60.1,70.7,56.0,49.4,87,65,41,29.88,29.65,0,0,0,0.20
2014-10-15,78.8,61.5,53.2,53.9,49.3,44.9,79,66,32,29.91,29.80,0,0,0,0.00
2014-10-16,81.3,62.3,50.7,57.0,49.2,43.1,80,65,37,29.91,29.80,0,0,0,0.00
2014-10-17,83.5,68.4,54.3,65.3,57.6,48.0,85,70,48,29.91,29.80,0,0,0,0.00
2014-10-18,85.8,72.6,61.9,69.8,63.0,56.0,89,73,52,29.88,29.80,0,0,0,0.00
2014-10-19,78.4,67.0,57.6,56.6,53.4,50.2,77,63,46,30.00,29.88,0,0,0,0.00
2014-10-20,80.4,65.0,52.2,57.4,51.8,45.5,80,65,43,29.94,29.85,0,0,0,0.00
2014-10-21,79.0,70.7,64.2,59.2,58.0,56.3,76,65,50,29.88,29.83,0,0,0,0.00
2014-11-2,65.5,51.7,0.0,42.7,38.1,0.0,69,60,43,30.21,30.18,8,0,8,16.00
2014-11-3,68.5,41.9,40.3,49.7,32.6,31.1,72,69,51,30.24,30.18,12,0,12,0.00
2014-11-4,70.3,66.9,64.9,61.4,60.6,59.0,86,80,69,30.06,30.03,7,1,7,0.00
2014-11-5,79.3,70.5,62.6,67.7,63.7,58.0,87,80,67,30.06,30.00,11,2,11,0.00
2014-11-6,79.5,69.5,58.8,68.8,60.4,44.1,89,74,57,30.03,29.91,9,2,9,0.00
2014-11-7,66.4,57.3,47.8,44.1,40.3,35.6,69,54,39,30.06,29.88,11,2,11,0.00
2014-11-8,62.8,54.3,46.8,44.8,41.6,37.9,76,63,50,29.94,29.83,6,1,6,0.00
2014-11-9,71.2,57.9,47.3,51.0,45.9,38.7,77,65,47,29.94,29.83,10,1,10,0.00
2014-11-10,71.1,57.0,41.0,57.0,46.2,32.7,85,68,47,29.94,29.83,8,2,8,0.00
2014-11-11,75.7,65.7,56.5,64.5,59.3,51.6,89,80,67,29.91,29.80,8,2,8,0.00
2014-11-12,69.4,61.0,50.4,60.1,53.1,41.3,90,76,62,30.03,29.85,13,3,13,0.00
2014-11-13,50.4,44.7,40.1,41.3,33.1,23.4,78,64,51,30.15,30.00,13,5,15,0.43
2014-11-14,53.1,41.6,33.3,23.8,20.7,16.2,56,44,29,30.24,30.12,10,3,13,0.00
2014-11-15,58.6,46.1,32.7,43.1,29.9,19.6,73,54,37,30.21,30.03,9,2,9,0.00
2014-11-16,73.9,62.0,47.5,64.0,55.2,40.5,89,79,70,30.03,29.68,12,3,12,0.00
2014-11-17,66.9,50.5,35.8,64.2,38.6,20.8,91,65,45,30.18,29.65,21,4,21,0.63
2014-11-18,50.9,38.5,30.7,25.0,20.1,16.2,64,49,28,30.36,30.18,15,2,15,0.00
2014-11-19,55.4,41.0,27.5,35.3,25.4,16.2,70,55,36,30.33,30.18,10,2,10,0.00
2014-11-28,57.9,51.1,40.6,37.9,34.7,31.6,70,54,46,30.33,30.12,10,2,10,0.83
2014-11-29,68.7,55.0,38.7,57.4,47.5,30.3,87,76,65,30.15,30.03,11,3,11,0.00
2014-11-30,74.3,65.4,57.7,64.0,60.0,54.5,92,83,70,30.12,30.03,11,4,232,0.00
2014-12-1,74.1,66.1,57.9,64.1,60.1,53.1,92,82,65,30.21,30.12,10,2,10,0.00
2014-12-2,57.9,57.8,57.7,53.4,53.2,53.0,85,84,84,30.12,30.12,0,0,0,0.00
2014-12-8,67.6,58.6,47.1,51.2,47.4,40.0,76,67,55,30.12,30.03,8,2,8,0.00
2014-12-9,66.9,52.3,41.7,47.1,39.1,34.5,80,63,38,30.15,30.03,11,1,11,0.00
2014-12-10,60.4,51.3,42.4,38.1,35.3,32.3,68,55,41,30.18,30.00,9,2,9,0.00
2014-12-11,59.0,44.8,39.4,42.4,34.6,30.8,77,68,53,30.18,30.06,9,1,9,0.00
2014-12-12,61.3,50.8,45.0,43.2,39.6,37.5,76,67,50,30.24,30.12,6,1,6,0.00
2014-12-13,65.7,53.0,44.2,46.7,42.0,37.8,79,67,49,30.18,30.06,6,1,7,0.00
2014-12-14,64.6,51.8,41.5,50.1,42.9,34.2,79,72,58,30.06,29.94,10,2,10,0.00
2014-12-15,69.4,54.6,44.1,60.8,48.7,38.0,90,81,73,29.94,29.85,12,3,12,0.00
2014-12-16,67.6,59.6,45.1,61.7,45.1,33.9,91,61,38,30.12,29.88,13,3,13,0.00
2014-12-17,61.5,48.8,37.6,43.8,36.8,28.7,74,64,51,30.15,30.03,9,1,9,0.00
2014-12-18,62.4,54.0,43.9,50.8,44.6,37.3,78,71,55,30.09,29.97,10,2,10,0.00
2014-12-19,57.0,52.3,48.9,49.6,46.7,43.9,84,81,73,30.06,29.91,11,4,11,2.24
2014-12-20,55.6,51.5,48.2,48.8,46.0,43.9,86,81,77,30.00,29.91,10,4,14,0.39
2014-12-21,64.0,55.0,50.7,53.3,48.2,44.8,86,78,68,30.00,29.80,8,2,8,0.00
2014-12-22,68.0,62.5,57.4,65.3,59.4,53.2,92,90,86,29.80,29.59,11,3,11,0.75
2014-12-23,68.2,65.5,63.0,65.1,63.0,60.6,94,92,89,29.62,29.41,20,3,20,1.18
2014-12-24,64.9,56.5,41.9,62.7,50.2,32.4,93,80,55,29.97,29.41,16,5,16,0.24
2014-12-25,57.4,45.7,36.1,40.4,34.9,28.3,78,67,51,30.15,29.97,8,1,8,0.24
2014-12-26,67.3,57.1,45.1,54.5,49.2,38.7,83,75,61,30.12,30.00,15,4,15,0.00
2014-12-27,65.1,63.4,59.7,63.0,60.3,52.5,93,90,77,30.03,29.94,11,4,11,0.39
2014-12-28,73.4,65.9,58.6,70.8,63.5,54.7,94,92,84,29.97,29.88,8,1,8,0.12
2014-12-29,68.0,60.9,55.9,58.5,55.7,50.5,89,83,70,30.03,29.88,6,1,6,0.00
2014-12-30,59.0,53.7,42.3,54.0,46.1,33.9,89,76,64,30.27,30.00,10,3,11,0.00
2014-12-31,59.4,47.6,38.1,43.2,36.9,30.4,74,67,54,30.30,30.18,12,3,12,0.00
2015-1-1,59.4,51.0,42.1,51.1,43.5,34.1,79,75,73,30.21,30.03,11,3,11,0.00
2015-1-2,68.9,61.9,55.4,65.0,57.4,47.1,93,85,73,30.06,29.94,11,4,11,0.16